Location: Unspecified
(0.0000°N, 0.0000°E)
Time: 15:49:15
(UTC+00:00)

deb Briz - Pass Details

Date: 16 February 2026
Orbit: 1589 x 2054 km, 64.9° (Epoch: 5 March)

Event Time Altitude Azimuth Distance (km) Brightness Sun altitude
Rises 05:43:13 0° 210° (SSW) 5,243 ? -7.5°
Reaches altitude 10° 05:46:37 10° 214° (SW) 4,184 ? -6.7°
Maximum altitude 05:56:49 57° 290° (WNW) 1,956 ? -4.2°
Drops below altitude 10° 06:06:12 10° 7° (N) 3,855 ? -1.9°
Sets 06:09:14 0° 12° (NNE) 4,808 ? -1.2°
